Previsão horária em Al Jazirah al Hamra

Hoje, 25 Junho, Sexta-feira

Tempo Temperatura Precipitação Vento Pressão Humidade
00:00 +34°C° 0 mm 1 m/s 750 mmHg 33%
01:00 +34°C° 0 mm 1 m/s 750 mmHg 34%
02:00 +33°C° 0 mm 1 m/s 749 mmHg 33%
03:00 +34°C° 0 mm 2 m/s 749 mmHg 33%
04:00 +34°C° 0 mm 2 m/s 749 mmHg 30%
05:00 +36°C° 0 mm 3 m/s 750 mmHg 26%
06:00 +37°C° 0 mm 3 m/s 750 mmHg 23%
07:00 +38°C° 0 mm 4 m/s 750 mmHg 19%
08:00 +42°C° 0 mm 4 m/s 750 mmHg 18%
09:00 +45°C° 0 mm 5 m/s 750 mmHg 16%
10:00 +47°C° 0 mm 5 m/s 750 mmHg 15%
11:00 +47°C° 0 mm 5 m/s 750 mmHg 17%
12:00 +47°C° 0 mm 6 m/s 750 mmHg 20%
13:00 +46°C° 0 mm 6 m/s 750 mmHg 22%
14:00 +46°C° 0 mm 6 m/s 749 mmHg 22%
15:00 +45°C° 0 mm 5 m/s 749 mmHg 22%
16:00 +44°C° 0 mm 4 m/s 749 mmHg 22%
17:00 +42°C° 0 mm 3 m/s 749 mmHg 24%
18:00 +39°C° 0 mm 2 m/s 749 mmHg 26%
19:00 +37°C° 0 mm 1 m/s 748 mmHg 29%
20:00 +36°C° 0 mm 1 m/s 749 mmHg 27%
21:00 +37°C° 0 mm 2 m/s 749 mmHg 26%
22:00 +37°C° 0 mm 2 m/s 749 mmHg 24%
23:00 +36°C° 0 mm 2 m/s 749 mmHg 25%

Amanhã, 26 Junho, Sábado

Tempo Temperatura Precipitação Vento Pressão Humidade
00:00 +35°C° 0 mm 2 m/s 749 mmHg 27%
01:00 +34°C° 0 mm 1 m/s 749 mmHg 28%
02:00 +34°C° 0 mm 2 m/s 749 mmHg 27%
03:00 +34°C° 0 mm 2 m/s 748 mmHg 26%
04:00 +34°C° 0 mm 3 m/s 748 mmHg 25%
05:00 +36°C° 0 mm 3 m/s 749 mmHg 22%
06:00 +37°C° 0 mm 4 m/s 749 mmHg 19%
07:00 +40°C° 0 mm 4 m/s 749 mmHg 15%
08:00 +42°C° 0 mm 4 m/s 750 mmHg 15%
09:00 +43°C° 0 mm 4 m/s 750 mmHg 14%
10:00 +45°C° 0 mm 3 m/s 750 mmHg 13%
11:00 +45°C° 0 mm 4 m/s 750 mmHg 14%
12:00 +45°C° 0 mm 4 m/s 750 mmHg 15%
13:00 +47°C° 0 mm 4 m/s 749 mmHg 15%
14:00 +45°C° 0 mm 4 m/s 749 mmHg 16%
15:00 +45°C° 0 mm 3 m/s 749 mmHg 16%
16:00 +45°C° 0 mm 3 m/s 748 mmHg 16%
17:00 +42°C° 0 mm 2 m/s 748 mmHg 19%
18:00 +40°C° 0 mm 2 m/s 748 mmHg 21%
19:00 +39°C° 0 mm 1 m/s 748 mmHg 23%
20:00 +37°C° 0 mm 1 m/s 748 mmHg 22%
21:00 +37°C° 0 mm 1 m/s 749 mmHg 21%
22:00 +38°C° 0 mm 2 m/s 749 mmHg 20%
23:00 +37°C° 0 mm 2 m/s 749 mmHg 22%

Depois de amanhã, 27 Junho, Domingo

Tempo Temperatura Precipitação Vento Pressão Humidade
00:00 +37°C° 0 mm 2 m/s 749 mmHg 25%
01:00 +36°C° 0 mm 2 m/s 749 mmHg 27%
02:00 +35°C° 0 mm 2 m/s 749 mmHg 30%
03:00 +35°C° 0 mm 2 m/s 749 mmHg 32%
04:00 +34°C° 0 mm 2 m/s 749 mmHg 35%
05:00 +35°C° 0 mm 3 m/s 750 mmHg 34%
06:00 +37°C° 0 mm 3 m/s 750 mmHg 34%
07:00 +38°C° 0 mm 4 m/s 751 mmHg 33%
08:00 +41°C° 0 mm 4 m/s 751 mmHg 28%
09:00 +43°C° 0 mm 4 m/s 751 mmHg 24%
10:00 +45°C° 0 mm 4 m/s 752 mmHg 19%
11:00 +46°C° 0 mm 5 m/s 752 mmHg 20%
12:00 +46°C° 0 mm 5 m/s 751 mmHg 21%
13:00 +46°C° 0 mm 6 m/s 751 mmHg 22%
14:00 +46°C° 0 mm 5 m/s 751 mmHg 22%
15:00 +45°C° 0 mm 4 m/s 751 mmHg 21%
16:00 +44°C° 0 mm 3 m/s 750 mmHg 21%
17:00 +42°C° 0 mm 2 m/s 750 mmHg 23%
18:00 +40°C° 0 mm 1 m/s 750 mmHg 25%
19:00 +39°C° 0 mm 1 m/s 750 mmHg 27%
20:00 +37°C° 0 mm 1 m/s 751 mmHg 33%
21:00 +38°C° 0 mm 2 m/s 751 mmHg 38%
22:00 +37°C° 0 mm 3 m/s 751 mmHg 44%
23:00 +37°C° 0 mm 3 m/s 751 mmHg 43%

28 Junho, Segunda-feira

Tempo Temperatura Precipitação Vento Pressão Humidade
00:00 +37°C° 0 mm 3 m/s 751 mmHg 41%
01:00 +36°C° 0 mm 3 m/s 751 mmHg 40%
02:00 +35°C° 0 mm 3 m/s 751 mmHg 48%
03:00 +34°C° 0 mm 2 m/s 751 mmHg 56%
04:00 +32°C° 0 mm 2 m/s 751 mmHg 63%
05:00 +34°C° 0 mm 2 m/s 752 mmHg 58%
06:00 +36°C° 0 mm 3 m/s 752 mmHg 52%
07:00 +37°C° 0 mm 3 m/s 752 mmHg 46%
08:00 +39°C° 0 mm 3 m/s 752 mmHg 39%
09:00 +41°C° 0 mm 2 m/s 753 mmHg 33%
10:00 +43°C° 0 mm 2 m/s 753 mmHg 26%
11:00 +44°C° 0 mm 3 m/s 752 mmHg 26%
12:00 +44°C° 0 mm 4 m/s 752 mmHg 25%
13:00 +46°C° 0 mm 5 m/s 752 mmHg 25%
14:00 +45°C° 0 mm 5 m/s 752 mmHg 25%
15:00 +44°C° 0 mm 4 m/s 751 mmHg 25%
16:00 +44°C° 0 mm 4 m/s 751 mmHg 25%
17:00 +43°C° 0 mm 3 m/s 751 mmHg 27%
18:00 +40°C° 0 mm 2 m/s 750 mmHg 29%
19:00 +39°C° 0 mm 1 m/s 750 mmHg 30%
20:00 +39°C° 0 mm 1 m/s 751 mmHg 33%
21:00 +38°C° 0 mm 2 m/s 751 mmHg 35%
22:00 +37°C° 0 mm 2 m/s 751 mmHg 37%
23:00 +37°C° 0 mm 2 m/s 751 mmHg 40%

29 Junho, Terça-feira

Tempo Temperatura Precipitação Vento Pressão Humidade
00:00 +37°C° 0 mm 2 m/s 751 mmHg 42%
01:00 +37°C° 0 mm 2 m/s 750 mmHg 45%
02:00 +36°C° 0 mm 2 m/s 750 mmHg 44%
03:00 +35°C° 0 mm 1 m/s 750 mmHg 43%
04:00 +34°C° 0 mm 1 m/s 750 mmHg 42%
05:00 +35°C° 0 mm 1 m/s 750 mmHg 40%
06:00 +36°C° 0 mm 1 m/s 751 mmHg 39%
07:00 +36°C° 0 mm 1 m/s 752 mmHg 38%
08:00 +39°C° 0 mm 2 m/s 752 mmHg 33%
09:00 +42°C° 0 mm 3 m/s 752 mmHg 29%
10:00 +44°C° 0 mm 4 m/s 752 mmHg 24%
11:00 +44°C° 0 mm 4 m/s 752 mmHg 24%
12:00 +45°C° 0 mm 5 m/s 752 mmHg 25%
13:00 +46°C° 0 mm 5 m/s 751 mmHg 25%
14:00 +44°C° 0 mm 4 m/s 751 mmHg 25%
15:00 +44°C° 0 mm 4 m/s 751 mmHg 24%
16:00 +44°C° 0 mm 3 m/s 750 mmHg 24%
17:00 +43°C° 0 mm 3 m/s 750 mmHg 26%
18:00 +40°C° 0 mm 2 m/s 750 mmHg 28%
19:00 +39°C° 0 mm 1 m/s 750 mmHg 30%
20:00 +37°C° 0 mm 1 m/s 750 mmHg 30%
21:00 +37°C° 0 mm 1 m/s 750 mmHg 29%
22:00 +36°C° 0 mm 1 m/s 750 mmHg 28%
23:00 +37°C° 0 mm 2 m/s 750 mmHg 28%

30 Junho, Quarta-feira

Tempo Temperatura Precipitação Vento Pressão Humidade
00:00 +37°C° 0 mm 2 m/s 750 mmHg 28%
01:00 +36°C° 0 mm 2 m/s 749 mmHg 28%
02:00 +36°C° 0 mm 2 m/s 750 mmHg 29%
03:00 +36°C° 0 mm 2 m/s 750 mmHg 29%
04:00 +36°C° 0 mm 3 m/s 750 mmHg 30%
05:00 +36°C° 0 mm 4 m/s 750 mmHg 30%
06:00 +36°C° 0 mm 4 m/s 751 mmHg 31%
07:00 +37°C° 0 mm 5 m/s 751 mmHg 32%
08:00 +40°C° 0 mm 5 m/s 751 mmHg 29%
09:00 +42°C° 0 mm 5 m/s 752 mmHg 25%
10:00 +44°C° 0 mm 4 m/s 752 mmHg 21%
11:00 +46°C° 0 mm 5 m/s 751 mmHg 21%
12:00 +46°C° 0 mm 5 m/s 751 mmHg 22%
13:00 +46°C° 0 mm 5 m/s 751 mmHg 22%
14:00 +45°C° 0 mm 4 m/s 750 mmHg 22%
15:00 +45°C° 0 mm 4 m/s 750 mmHg 22%
16:00 +44°C° 0 mm 4 m/s 749 mmHg 22%
17:00 +43°C° 0 mm 3 m/s 749 mmHg 26%
18:00 +40°C° 0 mm 2 m/s 749 mmHg 29%
19:00 +39°C° 0 mm 2 m/s 748 mmHg 32%
20:00 +38°C° 0 mm 2 m/s 749 mmHg 33%
21:00 +36°C° 0 mm 1 m/s 749 mmHg 34%
22:00 +35°C° 0 mm 1 m/s 749 mmHg 35%
23:00 +34°C° 0 mm 1 m/s 749 mmHg 38%
Mostrar mais